Showing default

CALSPHERE 1, 900

Orbit data source: Space-Track

CALSPHERE 1, 900 is a payload satellite owned by NRL (US) in LEO that was launched on Tue, 06 Oct 1964 UTC via a THOR ABLESTAR launch vehicle from the Air Force Western Test Range (AFWTR). Payload-class satellites include a variety of spacecraft equipped with specific instruments for various scientific and technological missions. These include communications satellites like Starlink; space stations such as the ISS; scientific satellites like the Hubble; Earth observation satellites from companies like Planet Labs, Umbra, and HawkEye 360; GPS; miniature CubeSats for education and research; and military/defense satellites.

Loading next visibility...
Identifier
900, 1964-063C
Orbit
LEO
Country
Flag of USUS
Related business
Manufacturer
NRL
Mission
Operational spacecraft
Bus & Motor
NRL 14", Unknown motor
Mass
1 kg wet, 1 kg dry
Launch date (UTC)
1964-10-06 (62 years ago)
Launch vehicle
THOR ABLESTAR
Launch site
Air Force Western Test Range (AFWTR)
Object type
Payload
Rocket body
Debris
Shape & HBR
Unknown
Radar Cross Section
Medium (>0.1 m² and <1 m²)

Expand to show TLE details & history
Last TLE update: 1 day ago

TLE from 1 day ago
0 CALSPHERE 1
1 00900U 64063C   26163.15791589  .00000554  00000-0  55438-3 0  9993
2 00900  90.2237  71.6525 0024561 313.5131 142.2395 13.76618187 70736
Epoch: 2026-06-12T03:47Z
TLE epoch observation values (Epoch: 2026-06-12T03:47:23.932Z)
Latitude
84.09461°
Longitude
-63.53657°
Altitude
1,003.955 km
Speed
7.349 km/s
True Right ascension
16h 55m 13s
True Declination
84° 03' 38"
Sunlit
Object was in daylight at epoch
Visualization orbit readout
Latitude
Unknown
Longitude
Unknown
Altitude
Unknown
Speed
Unknown
Apparent Right ascension
Unknown
Apparent Declination
Unknown
Sunlit
N/A
Visualization observer readout
Local Sidereal Time
14:07:24
Azimuth
Unknown
Elevation
Unknown
Doppler factor
Unknown
Orbital elements
Apogee altitude
990.972 km
Perigee altitude
954.862 km
Semi-major axis
7,351.054 km
Eccentricity
0.00246
Inclination
90.2237°
RAAN
71.6525°
Arg. of periapsis
313.5131°
True anomaly
142.41143°
Mean anomaly
142.2395°
Eccentric anomaly
142.32551°
Mean motion
3.44365 °/min
Orbital period
104.54 mins
BSTAR
0.00055438
Loading maneuver chart data...
Computing Atmospheric mass density...
Loading historical data...
Loading historical data...
Loading historical data...
Loading historical data...
Loading historical data...
Loading historical data...
Loading historical data...

Documentation

Showing up to 5 results
|